Location: La Pernelle
(49.6188°N, 1.2999°W)
Time: 18:39:44
(UTC+00:00)

Cosmos 1697 Rocket - Visible Passes

Search period start: 28 October 2021 00:00
Search period end: 07 November 2021 00:00
Orbit: 833 x 843 km, 71.0° (Epoch: 27 October)

Date Brightness Start Highest point End Pass type
(mag) Time Alt. Az. Time Alt. Az. Time Alt. Az.
28 Oct 4.8 17:52:09 10° W 17:56:20 21° NW 18:00:31 10° N visible
29 Oct 4.8 17:35:47 10° W 17:40:04 22° NW 17:44:22 10° N visible
30 Oct 4.7 17:19:25 10° W 17:23:48 23° NW 17:28:12 10° N visible
04 Nov 5.2 17:48:10 10° NNW 17:48:36 10° NNW 17:49:03 10° NNW visible
05 Nov 5.1 17:31:20 10° NNW 17:32:19 10° NNW 17:33:17 10° N visible
06 Nov 5.0 17:14:42 10° NW 17:16:00 11° NNW 17:17:19 10° N visible
